Stations météo

Publicité
Ajaccio, France (7761): Température de l'air & dewpoint: 12.08.2017 03:00:00 - 18.08.2017 03:00:00 (CEST)Ajaccio, France (7761): Température de l'air 5cm: 12.08.2017 03:00:00 - 18.08.2017 03:00:00 (CEST)Ajaccio, France (7761): Température de l'air -20cm & Température de l'air -100cm: 12.08.2017 03:00:00 - 18.08.2017 03:00:00 (CEST)Ajaccio, France (7761): Vitesse du vent & gusts: 12.08.2017 03:00:00 - 18.08.2017 03:00:00 (CEST)Ajaccio, France (7761): Direction du vent: 12.08.2017 03:00:00 - 18.08.2017 03:00:00 (CEST)Ajaccio, France (7761): reduced air pressure: 12.08.2017 03:00:00 - 18.08.2017 03:00:00 (CEST)Ajaccio, France (7761): visibility: 12.08.2017 03:00:00 - 18.08.2017 03:00:00 (CEST)Ajaccio, France (7761): Ensoleillement: 12.08.2017 03:00:00 - 18.08.2017 03:00:00 (CEST)Ajaccio, France (7761): Quantités de précipitations: 12.08.2017 03:00:00 - 18.08.2017 03:00:00 (CEST)
Date & Time tt [°C] td [°C] tt 5cm [°C] tt -20cm [°C] tt -100cm [°C] ff [km/h] ff [knt] fx [km/h] fx [knt] dd ppp [hPa] vv [km] sd [min] rr [mm]
18.08.2017 03:00:00 - - - - - - - - - - - - - -
18.08.2017 02:00:00 20,4 17,0 19,6 32,8 29,8 6 3 8 4 NE 1017,0 29 0 0,0
18.08.2017 01:00:00 20,6 17,4 19,9 32,8 29,8 4 2 6 4 ENE 1017,4 28 0 0,0
18.08.2017 00:00:00 21,6 18,0 20,9 32,8 29,8 5 3 8 4 ENE 1017,3 35 0 0,0
17.08.2017 23:00:00 22,3 18,9 21,6 32,8 29,8 5 3 8 4 ENE 1017,0 29 0 0,0
17.08.2017 22:00:00 23,7 19,4 22,4 32,7 29,8 6 3 8 4 NE 1017,1 28 0 0,0
17.08.2017 21:00:00 24,4 19,9 23,4 32,5 29,8 2 1 13 7 N 1017,0 39 0 0,0
17.08.2017 20:00:00 25,4 20,9 25,4 32,3 29,8 11 6 20 11 S 1016,8 42 56 0,0
17.08.2017 19:00:00 26,3 20,2 28,6 32,0 29,7 15 8 22 12 S 1016,6 53 60 0,0
17.08.2017 18:00:00 27,0 20,6 29,2 31,8 29,7 16 8 27 15 S 1016,6 60 60 0,0
17.08.2017 17:00:00 27,4 20,0 30,1 31,6 29,8 21 11 30 16 SSW 1016,6 40 60 0,0
17.08.2017 16:00:00 27,9 20,2 31,4 31,4 29,8 24 13 32 18 SSW 1016,7 40 60 0,0
17.08.2017 15:00:00 28,1 19,6 33,4 31,3 29,7 24 13 35 19 S 1017,0 40 60 0,0
17.08.2017 14:00:00 28,1 19,6 34,1 31,2 29,8 24 13 32 17 S 1017,3 40 60 0,0
17.08.2017 13:00:00 28,4 19,3 35,2 31,3 29,8 21 12 30 16 S 1017,3 40 60 0,0
17.08.2017 12:00:00 28,7 20,4 35,4 31,3 29,8 18 10 24 13 S 1017,5 40 60 0,0
17.08.2017 11:00:00 27,6 18,0 36,0 31,4 29,7 16 9 21 11 SW 1017,5 40 60 0,0
17.08.2017 10:00:00 28,1 11,2 31,1 31,6 29,7 8 4 10 5 WSW 1017,2 40 60 0,0
17.08.2017 09:00:00 26,1 10,7 24,0 31,8 29,8 4 2 14 8 NNE 1017,2 40 60 0,0
17.08.2017 08:00:00 21,8 10,9 19,9 32,0 29,8 7 4 11 6 NE 1017,6 40 40 0,0
17.08.2017 07:00:00 20,3 10,4 19,3 32,1 29,7 6 4 14 7 NE 1017,3 40 0 0,0
17.08.2017 06:00:00 20,5 10,3 19,7 32,3 29,8 11 6 16 9 NE 1017,1 40 0 0,0
17.08.2017 05:00:00 20,6 10,7 19,8 32,4 29,8 8 5 15 8 ENE 1017,3 60 0 0,0
17.08.2017 04:00:00 21,2 10,9 20,2 32,6 29,8 11 6 15 8 NE 1017,5 60 0 0,0
17.08.2017 03:00:00 22,9 10,7 21,0 32,7 29,8 9 5 15 8 NE 1017,9 60 0 0,0
17.08.2017 02:00:00 22,7 9,8 21,1 32,7 29,8 4 2 12 7 SW 1017,5 60 0 0,0
17.08.2017 01:00:00 23,5 8,7 22,4 32,8 29,8 6 3 11 6 NE 1016,9 60 0 0,0
17.08.2017 00:00:00 24,5 9,2 23,4 32,8 29,8 9 5 12 7 NE 1017,2 60 0 0,0
16.08.2017 23:00:00 24,6 9,3 23,6 32,7 29,8 8 4 12 7 NE 1017,7 60 0 0,0
16.08.2017 22:00:00 25,4 10,0 24,4 32,6 29,8 8 5 14 7 ENE 1017,8 60 0 0,0
16.08.2017 21:00:00 27,1 9,4 24,8 32,4 29,8 4 2 10 6 E 1017,7 60 0 0,0
16.08.2017 20:00:00 29,3 9,4 28,8 32,1 29,8 7 4 23 12 NW 1017,7 60 35 0,0
16.08.2017 19:00:00 30,7 8,4 31,4 31,9 29,8 21 11 32 18 NW 1017,2 60 60 0,0
16.08.2017 18:00:00 30,7 13,5 32,6 31,6 29,8 9 5 22 12 SW 1017,2 40 60 0,0
16.08.2017 17:00:00 31,4 14,5 33,5 31,3 29,8 11 6 20 11 SSW 1017,2 60 60 0,0
16.08.2017 16:00:00 29,9 16,3 33,8 31,1 29,8 17 9 26 14 S 1017,5 40 60 0,0
16.08.2017 15:00:00 29,8 18,3 35,2 31,0 29,8 20 11 31 17 S 1017,8 60 60 0,0
16.08.2017 14:00:00 28,7 20,4 35,1 30,9 29,8 21 11 28 15 S 1018,2 40 60 0,0
16.08.2017 13:00:00 28,3 20,8 37,5 31,0 29,8 17 9 23 12 SW 1018,6 40 60 0,0
16.08.2017 12:00:00 28,1 19,1 37,0 31,1 29,8 16 9 24 13 SW 1019,0 60 60 0,0
16.08.2017 11:00:00 27,5 19,0 34,4 31,2 29,8 13 7 18 10 SW 1019,1 40 60 0,0
16.08.2017 10:00:00 27,2 14,2 29,9 31,4 29,8 14 8 19 10 WSW 1019,2 40 40 0,0
16.08.2017 09:00:00 27,1 10,3 25,0 31,6 29,8 5 3 14 7 NE 1018,9 40 60 0,0
16.08.2017 08:00:00 21,8 10,3 19,1 31,8 29,8 5 3 17 9 NNE 1018,8 10 56 0,0
16.08.2017 07:00:00 19,8 9,9 17,6 32,0 29,8 13 7 19 10 NE 1018,4 40 0 0,0
16.08.2017 06:00:00 18,9 10,2 17,9 32,1 29,8 10 5 18 10 NE 1018,4 60 0 0,0
16.08.2017 05:00:00 18,7 10,3 17,3 32,3 29,8 13 7 19 10 NE 1018,5 60 0 0,0
16.08.2017 04:00:00 19,2 10,2 18,4 32,5 29,8 6 3 16 9 ENE 1018,9 60 0 0,0
16.08.2017 03:00:00 19,5 10,5 18,2 32,6 29,8 10 5 16 8 NNE 1018,8 60 0 0,0
16.08.2017 02:00:00 19,4 10,9 18,5 32,7 29,8 11 6 17 9 NE 1019,4 60 0 0,0
16.08.2017 01:00:00 19,9 11,1 19,1 32,8 29,8 8 5 11 6 NE 1019,6 60 0 0,0
16.08.2017 00:00:00 21,7 11,1 20,6 32,8 29,8 6 3 13 7 E 1019,6 60 0 0,0
15.08.2017 23:00:00 22,6 11,6 21,6 32,7 29,8 9 5 11 6 NE 1019,3 60 0 0,0
15.08.2017 22:00:00 24,1 12,7 23,1 32,5 29,8 8 5 11 6 NE 1019,1 60 0 0,0
15.08.2017 21:00:00 25,8 15,5 23,6 32,3 29,8 4 2 8 4 E 1018,6 60 2 0,0
15.08.2017 20:00:00 27,5 18,5 27,7 32,0 29,8 6 4 12 7 SW 1018,4 60 60 0,0
15.08.2017 19:00:00 28,8 19,4 31,2 31,7 29,8 10 5 21 12 S 1018,2 51 60 0,0
15.08.2017 18:00:00 29,2 19,2 31,1 31,5 29,8 15 8 23 12 SSW 1018,5 40 60 0,0
15.08.2017 17:00:00 29,3 19,3 32,5 31,2 29,8 15 8 22 12 SSW 1018,8 40 60 0,0
15.08.2017 16:00:00 30,2 15,1 34,8 31,0 29,9 13 7 22 12 SSW 1019,2 40 60 0,0
15.08.2017 15:00:00 29,7 18,5 36,8 30,8 29,8 16 8 24 13 SSW 1020,1 40 60 0,0
15.08.2017 14:00:00 30,0 17,5 38,3 30,7 29,8 18 10 28 15 SSW 1020,5 60 60 0,0
15.08.2017 13:00:00 28,8 17,7 38,5 30,7 29,8 18 10 26 14 SW 1020,6 60 60 0,0
15.08.2017 12:00:00 28,7 17,9 37,2 30,8 29,8 14 7 19 10 SSW 1020,3 60 60 0,0
15.08.2017 11:00:00 28,2 16,5 36,5 31,0 29,8 13 7 18 10 SSW 1020,2 60 60 0,0
15.08.2017 10:00:00 27,4 13,0 31,6 31,2 29,9 8 4 10 5 SW 1020,1 60 60 0,0
15.08.2017 09:00:00 26,6 10,7 23,9 31,4 29,9 4 2 11 6 NNE 1020,7 60 60 0,0
15.08.2017 08:00:00 20,9 10,4 17,7 31,5 29,8 8 5 16 9 NE 1021,0 59 60 0,0
15.08.2017 07:00:00 17,9 10,3 16,6 31,7 29,9 13 7 18 10 NE 1020,4 60 3 0,0
15.08.2017 06:00:00 17,7 10,1 16,4 31,9 29,9 11 6 16 9 NE 1020,1 40 0 0,0
15.08.2017 05:00:00 18,3 10,1 17,3 32,1 29,9 10 5 17 9 NE 1019,9 60 0 0,0
15.08.2017 04:00:00 18,1 10,5 17,3 32,2 29,9 13 7 17 9 NE 1019,5 60 0 0,0
15.08.2017 03:00:00 19,2 10,5 17,8 32,4 29,9 10 5 17 9 NE 1019,7 60 0 0,0
15.08.2017 02:00:00 18,4 10,5 17,5 32,5 29,9 12 7 14 8 NE 1019,9 60 0 0,0
15.08.2017 01:00:00 19,7 10,7 19,0 32,5 29,9 7 4 12 6 NE 1020,1 60 0 0,0
15.08.2017 00:00:00 21,4 10,8 20,5 32,5 29,9 11 6 15 8 NE 1019,9 60 0 0,0
14.08.2017 23:00:00 22,7 11,1 21,4 32,4 29,9 9 5 18 10 ENE 1020,1 60 0 0,0
14.08.2017 22:00:00 23,9 12,2 22,7 32,3 29,9 9 5 12 6 NNE 1019,9 60 0 0,0
14.08.2017 21:00:00 25,3 15,0 24,2 32,1 29,9 4 2 15 8 E 1019,4 59 3 0,0
14.08.2017 20:00:00 26,9 18,5 26,9 31,8 29,9 10 5 19 11 S 1018,9 60 60 0,0
14.08.2017 19:00:00 28,1 19,3 30,9 31,5 29,9 13 7 18 10 SSW 1018,6 52 60 0,0
14.08.2017 18:00:00 29,3 16,1 31,6 31,2 29,9 12 6 17 9 SSW 1018,7 60 60 0,0
14.08.2017 17:00:00 29,6 15,3 31,9 30,9 29,9 13 7 21 12 SSW 1019,0 60 60 0,0
14.08.2017 16:00:00 29,9 15,2 34,1 30,7 29,9 17 9 24 13 SSW 1019,3 60 60 0,0
14.08.2017 15:00:00 30,2 17,3 38,2 30,5 29,9 19 11 26 14 SSW 1019,6 60 60 0,0
14.08.2017 14:00:00 29,8 16,6 36,4 30,5 29,9 18 10 26 14 S 1019,5 30 60 0,0
14.08.2017 13:00:00 28,2 17,4 37,3 30,5 30,0 19 10 24 13 SSW 1019,4 60 60 0,0
14.08.2017 12:00:00 27,7 16,9 37,1 30,6 29,9 16 9 21 11 SW 1019,5 60 60 0,0
14.08.2017 11:00:00 26,6 14,4 34,2 30,8 30,0 10 6 13 7 WSW 1019,5 60 60 0,0
14.08.2017 10:00:00 25,2 12,8 30,8 30,9 30,0 7 4 10 5 WSW 1019,6 60 60 0,0
14.08.2017 09:00:00 24,3 11,3 22,0 31,1 30,0 4 2 12 6 NNE 1019,3 60 60 0,0
14.08.2017 08:00:00 19,2 10,7 15,6 31,3 30,0 11 6 15 8 NE 1019,2 60 60 0,0
14.08.2017 07:00:00 15,7 10,0 14,5 31,5 30,0 12 6 16 9 ENE 1018,9 60 4 0,0
14.08.2017 06:00:00 15,8 10,1 15,0 31,7 30,0 11 6 14 8 NE 1018,7 10 0 0,0
14.08.2017 05:00:00 16,5 10,3 15,2 31,9 30,0 10 6 15 8 NE 1018,4 60 0 0,0
14.08.2017 04:00:00 17,1 10,7 15,4 32,1 30,0 10 5 15 8 NE 1018,5 60 0 0,0
14.08.2017 03:00:00 16,7 10,3 16,1 32,2 30,0 11 6 13 7 NE 1018,7 60 0 0,0
14.08.2017 02:00:00 18,0 10,6 17,2 32,3 30,0 7 4 14 8 ENE 1018,9 60 0 0,0
14.08.2017 01:00:00 17,7 11,3 16,8 32,4 30,0 12 6 16 9 NE 1018,9 60 0 0,0
14.08.2017 00:00:00 18,3 11,4 17,6 32,4 30,0 6 4 10 5 NE 1019,0 60 0 0,0
13.08.2017 23:00:00 20,9 12,1 19,7 32,3 30,0 6 3 9 5 E 1018,7 60 0 0,0
13.08.2017 22:00:00 21,3 13,2 20,4 32,2 30,1 7 4 10 5 NE 1018,4 60 0 0,0
13.08.2017 21:00:00 23,4 15,4 21,1 32,0 30,1 4 2 15 8 ENE 1018,2 60 4 0,0
13.08.2017 20:00:00 25,2 16,1 26,5 31,7 30,0 9 5 16 9 SW 1018,0 60 60 0,0
13.08.2017 19:00:00 26,6 15,3 29,0 31,4 30,0 15 8 22 12 SSW 1018,1 60 60 0,0
13.08.2017 18:00:00 26,8 15,2 29,2 31,2 30,1 13 7 19 11 SSW 1018,0 60 60 0,0
13.08.2017 17:00:00 27,2 17,7 30,9 30,9 30,0 14 8 23 12 SSW 1018,2 60 60 0,0
13.08.2017 16:00:00 27,2 17,4 33,3 30,6 30,0 18 10 23 13 SW 1017,9 60 60 0,0
13.08.2017 15:00:00 27,4 18,4 36,4 30,5 30,1 18 10 32 18 SW 1018,3 60 60 0,0
13.08.2017 14:00:00 26,7 18,3 36,2 30,4 30,1 18 10 28 15 SW 1018,6 10 60 0,0
13.08.2017 13:00:00 26,8 18,1 34,7 30,5 30,1 18 10 25 13 SW 1019,0 60 60 0,0
13.08.2017 12:00:00 25,6 17,5 33,3 30,6 30,1 13 7 18 10 WSW 1019,4 60 60 0,0
13.08.2017 11:00:00 24,9 15,2 33,1 30,7 30,1 10 6 25 14 SW 1019,4 60 60 0,0
13.08.2017 10:00:00 23,9 14,3 28,3 30,9 30,1 7 4 12 7 SSW 1018,7 60 60 0,0
13.08.2017 09:00:00 22,3 11,7 21,2 31,1 30,1 3 2 9 5 SE 1018,2 60 60 0,0
13.08.2017 08:00:00 18,1 12,8 14,9 31,3 30,1 8 5 14 8 NNE 1017,7 59 60 0,0
13.08.2017 07:00:00 15,1 12,0 14,3 31,5 30,1 8 4 19 10 NNE 1017,6 40 5 0,0
13.08.2017 06:00:00 14,9 12,4 14,0 31,7 30,1 13 7 16 9 NE 1017,8 60 0 0,0
13.08.2017 05:00:00 15,4 12,0 14,6 31,9 30,1 7 4 8 5 ENE 1018,0 59 0 0,0
13.08.2017 04:00:00 17,2 12,7 15,5 32,0 30,1 5 3 14 8 NE 1018,6 60 0 0,0
13.08.2017 03:00:00 16,1 13,0 15,2 32,1 30,1 9 5 14 8 ENE 1018,7 60 0 0,0
13.08.2017 02:00:00 17,1 12,8 16,1 32,3 30,2 5 3 7 4 E 1019,1 47 0 0,0
13.08.2017 01:00:00 18,6 13,2 17,3 32,3 30,2 4 2 11 6 NNE 1019,1 60 0 0,0
13.08.2017 00:00:00 19,1 13,5 17,9 32,4 30,2 7 4 14 7 NNE 1019,0 60 0 0,0
12.08.2017 23:00:00 20,0 13,7 19,3 32,3 30,2 6 3 14 8 NE 1019,1 60 0 0,0
12.08.2017 22:00:00 20,6 13,8 19,8 32,2 30,2 6 4 16 9 E 1018,8 60 0 0,0
12.08.2017 21:00:00 21,7 14,6 21,3 32,0 30,1 12 6 17 9 SW 1018,1 60 4 0,0
12.08.2017 20:00:00 22,6 13,9 23,5 31,8 30,2 11 6 21 11 SSW 1017,4 60 60 0,0
12.08.2017 19:00:00 23,6 14,6 26,9 31,6 30,2 15 8 31 17 SW 1017,0 60 60 0,0
12.08.2017 18:00:00 24,2 14,3 27,5 31,3 30,2 24 13 35 19 SW 1016,7 40 60 0,0
12.08.2017 17:00:00 25,2 15,2 28,8 31,1 30,2 21 11 28 15 SW 1016,7 60 60 0,0
12.08.2017 16:00:00 25,1 14,5 30,1 30,9 30,2 19 10 36 19 SW 1017,0 40 60 0,0
12.08.2017 15:00:00 25,6 15,3 32,8 30,7 30,2 24 13 35 19 SW 1017,1 40 60 0,0
12.08.2017 14:00:00 25,2 14,6 34,3 30,7 30,2 26 14 32 17 SW 1017,1 40 60 0,0
12.08.2017 13:00:00 25,2 14,0 34,0 30,7 30,2 21 12 32 17 SW 1017,1 40 60 0,0
12.08.2017 12:00:00 24,6 13,8 33,0 30,8 30,3 18 10 26 14 SW 1017,2 40 60 0,0
12.08.2017 11:00:00 23,9 13,4 32,4 30,9 30,3 15 8 21 12 WSW 1017,2 40 60 0,0
12.08.2017 10:00:00 23,3 12,9 28,1 31,1 30,3 11 6 16 9 WSW 1016,9 40 60 0,0
12.08.2017 09:00:00 22,7 12,0 21,0 31,3 30,3 3 2 13 7 NE 1016,5 40 60 0,0
12.08.2017 08:00:00 18,8 12,1 15,7 31,5 30,3 9 5 14 8 NE 1016,1 40 51 0,0
12.08.2017 07:00:00 16,3 11,2 15,2 31,6 30,3 10 5 12 6 NE 1015,7 40 0 0,0
12.08.2017 06:00:00 16,4 11,5 15,4 31,8 30,3 9 5 14 8 ENE 1015,7 40 0 0,0
12.08.2017 05:00:00 16,9 11,6 15,9 31,9 30,3 6 3 12 6 ENE 1015,2 54 0 0,0
12.08.2017 04:00:00 20,4 11,1 18,4 32,0 30,3 7 4 26 14 NW 1015,7 43 0 0,0
12.08.2017 03:00:00 21,4 12,5 20,6 32,2 30,3 20 11 29 16 W 1016,2 43 0 0,0

tt = Température de l'air
td = dewpoint
tt 5cm = Température de l'air 5cm
tt -20cm = Température de l'air -20cm
tt -100cm = Température de l'air -100cm
ff = Vitesse du vent
fx = gusts
dd = Direction du vent
ppp = reduced air pressure
vv = visibility
sd = Ensoleillement
rr = Quantités de précipitations

stations d'obs. à proximité